SCP
0 -0 0 -0 -0 0 -0 0 0 0 0 0 0 0 0 -0 -0 -0 -0 -0 -0 -0 -0 -0 -0 -1 -2 -2 -2 -2 -1 -0
0 0 0 0 0 0 0 -0 0 0 0 0 0 0 -0 -0 -0 -0 -0 -0 -0 -0 -0 -0 -0 -1 -2 -2 -2 -2 -2 -1
0 0 0 0 0 0 0 0 0 0 -0 0 0 0 0 -0 -0 -0 -0 -0 -0 -0 -0 0 0 -0 -2 -1 -2 -2 -1 -1
0 0 0 0 0 0 0 0 0 0 0 0 0 0 0 0 0 -0 0 0 -0 -0 -0 0 -0 -0 -1 -1 -1 -2 -2 -1
0 0 0 0 0 0 0 0 0 0 0 0 0 -0 0 0 0 0 0 0 0 0 0 0 -0 -0 -1 -1 -1 -1 -1 -1
0 0 0 0 0 0 0 0 0 -0 0 0 0 -0 -0 0 0 0 0 0 0 0 0 0 -0 -0 -0 -1 0 -0 -1 -1
0 0 0 0 0 0 0 0 0 0 0 0 0 0 0 0 0 0 0 0 0 0 0 0 0 -0 -0 -0 1 0 -0 -1
0 0 0 0 0 0 0 0 0 0 0 0 0 0 0 0 0 0 0 0 0 0 0 0 0 0 0 0 1 1 0 -1
0 0 0 0 0 0 0 0 0 0 0 0 0 0 0 0 0 0 0 0 0 0 0 0 0 1 1 1 2 1 1 1
0 0 0 0 0 0 0 0 0 0 0 0 0 0 0 0 0 0 0 0 0 0 0 0 1 1 1 2 2 2 3 3
0 0 0 0 0 0 0 0 0 0 0 0 0 0 0 0 0 0 0 0 0 0 0 1 1 0 1 1 3 3 2 2
0 0 0 0 0 0 0 0 0 0 0 0 0 0 0 0 0 0 0 0 0 0 1 1 2 1 1 1 2 2 3 2
0 0 0 0 0 0 0 0 0 0 0 0 0 0 0 0 0 0 0 0 0 0 0 1 1 3 1 2 1 1 1 2
0 0 0 0 0 0 0 1 0 0 0 0 0 0 0 0 1 2 3 3 0 0 0 0 3 7 3 3 1 2 3 3
0 0 0 0 0 0 0 1 1 0 0 0 0 1 2 1 1 3 2 3 6 1 1 2 1 4 5 4 4 7 6 8
0 -0 0 0 0 0 0 5 6 4 3 4 4 6 6 6 7 7 6 5 7 9 7 6 6 3 5 8 11 14 13 21
0 -0 -0 0 0 0 2 4 2 5 7 4 4 6 7 7 7 6 6 6 5 6 8 10 10 11 13 15 22 33 35 32
0 0 0 0 0 0 0 0 0 2 3 3 4 4 4 4 4 4 4 4 4 5 5 6 8 10 12 15 16 15 14 9
0 0 -0 0 0 0 0 0 0 0 0 0 0 1 3 2 2 1 2 2 2 2 3 3 3 5 5 8 9 6 3 1
Wind_Speed_500mb
31 28 38 20 21 22 13 7 3 9 13 16 24 16 38 72 73 80 96 101 111 119 122 121 123 123 120 115 109 102 95 85
43 19 33 38 15 9 2 24 30 10 13 12 15 27 34 47 66 85 94 102 101 107 120 119 120 124 121 117 114 106 97 92
8 25 32 16 22 6 12 18 26 17 30 15 19 23 28 42 88 91 86 100 102 99 111 120 114 116 120 120 117 113 105 95
52 18 25 42 33 27 23 16 10 32 39 5 20 21 30 47 73 85 75 89 90 116 108 102 106 111 120 119 118 116 110 98
16 23 25 15 23 37 12 9 40 15 5 18 12 9 28 31 34 51 70 67 85 94 89 90 97 109 121 122 118 114 113 105
42 23 12 13 35 26 35 24 22 42 11 13 2 14 17 51 64 68 74 78 61 69 87 89 100 107 121 127 119 117 115 110
20 32 37 21 22 44 44 41 40 16 21 20 19 18 17 48 56 79 87 68 75 91 83 104 102 115 125 129 122 119 116 114
14 23 45 45 39 43 33 43 39 16 16 19 28 39 28 42 63 66 58 75 73 59 76 105 120 123 130 127 124 119 119 118
13 13 35 35 66 32 24 17 20 23 15 18 17 16 23 37 55 58 72 76 57 56 85 111 123 135 124 117 119 118 122 121
11 6 34 32 31 43 18 13 12 14 18 29 26 55 57 48 42 51 44 54 45 57 71 102 110 113 116 111 115 117 119 120
7 8 7 6 9 18 19 26 19 19 19 18 46 38 10 44 41 43 67 44 36 44 47 64 66 92 103 106 110 111 112 114
7 5 12 8 8 19 15 5 9 20 21 17 16 19 11 31 38 41 37 40 40 41 55 69 74 82 95 102 106 108 108 111
24 10 15 9 14 9 17 14 5 12 18 19 13 20 42 35 33 34 55 53 46 43 45 40 43 76 83 89 93 80 81 80
9 12 10 62 43 11 12 13 19 28 27 49 51 44 37 35 33 28 26 44 55 54 65 70 67 75 69 74 70 69 89 90
9 6 13 49 29 51 25 23 14 24 25 28 35 49 52 49 42 35 29 24 23 30 53 65 59 62 72 79 75 76 88 94
3 7 28 48 79 52 31 39 28 22 27 26 51 51 52 49 39 31 24 18 15 20 31 43 55 65 75 80 87 97 99 101
1 17 40 34 64 50 28 39 39 39 49 52 50 46 48 43 34 26 17 6 9 22 36 40 45 50 57 72 82 87 92 85
7 9 7 15 43 56 76 63 48 47 48 46 45 45 42 41 32 21 10 7 12 14 19 30 38 47 53 56 66 74 88 85
8 14 4 4 45 71 80 73 67 56 48 49 45 44 42 40 32 24 16 4 5 7 12 12 20 29 36 47 53 50 56 59
Wind_Direction_500mb
209 220 195 219 206 198 196 209 308 214 259 291 241 210 215 211 207 205 205 205 207 213 216 215 216 219 220 219 220 222 223 224
239 213 240 209 180 204 226 217 241 255 230 221 212 219 196 207 207 204 201 204 207 210 214 216 219 222 221 224 221 223 224 224
202 222 215 200 210 232 183 196 226 242 248 197 235 212 208 203 201 200 192 199 203 208 216 218 216 218 223 223 224 223 222 223
235 208 201 220 215 196 220 243 245 227 237 242 198 223 195 199 203 202 189 192 202 210 210 211 218 219 224 225 225 226 224 221
272 255 240 205 223 217 147 135 226 207 215 203 228 181 204 211 211 196 198 200 206 202 209 212 219 220 224 228 229 228 226 222
232 215 177 196 224 217 215 215 215 235 199 291 182 188 225 209 203 193 201 218 216 213 212 221 222 223 225 227 229 228 228 226
275 240 206 189 194 217 215 222 212 186 193 228 236 199 221 241 214 204 205 214 226 220 225 226 222 223 223 227 227 227 228 228
258 244 225 220 223 231 221 220 231 160 212 186 231 219 208 228 215 212 218 212 206 212 228 218 221 220 225 222 226 225 227 230
276 218 214 233 221 205 215 206 193 210 192 184 201 200 204 215 217 222 218 219 222 227 219 209 212 216 218 222 225 225 227 229
271 295 200 230 203 219 189 207 210 213 210 206 205 221 216 230 244 230 211 195 211 208 208 211 215 218 221 223 224 226 228 225
260 277 266 232 158 153 177 234 191 196 210 212 219 208 211 211 208 229 219 214 198 219 208 210 220 223 224 221 225 225 227 229
279 326 258 211 266 120 107 273 245 194 199 193 134 206 237 210 217 196 213 225 214 212 221 204 212 224 225 225 225 229 231 233
251 230 279 322 271 58 114 226 230 140 184 148 153 189 155 156 168 197 209 211 228 223 210 203 203 216 219 227 224 228 231 233
279 265 257 349 328 139 206 113 125 117 122 127 129 139 152 153 149 157 178 207 216 220 225 230 216 218 225 224 236 232 230 229
165 232 341 356 328 326 18 110 122 110 117 118 119 131 131 130 135 138 147 173 202 226 233 230 230 231 230 229 228 231 227 228
44 33 1 342 345 357 37 81 76 128 128 136 129 128 125 128 131 136 137 150 178 206 221 226 230 234 235 233 230 226 222 220
300 4 354 0 339 352 59 74 93 93 111 125 129 121 130 126 127 126 123 136 212 216 223 238 244 239 234 232 230 217 213 204
141 68 309 299 338 37 59 52 60 82 88 95 108 113 120 118 125 135 156 222 254 256 250 237 232 233 231 226 220 213 198 194
111 116 215 203 38 61 63 66 65 67 72 92 95 103 107 109 112 119 121 135 265 258 261 260 258 251 227 206 216 204 209 209
Wind_Speed_850mb
31 28 38 20 21 22 13 7 3 9 13 16 24 16 38 72 73 80 96 101 111 119 122 121 123 123 120 115 109 102 95 85
43 19 33 38 15 9 2 24 30 10 13 12 15 27 34 47 66 85 94 102 101 107 120 119 120 124 121 117 114 106 97 92
8 25 32 16 22 6 12 18 26 17 30 15 19 23 28 42 88 91 86 100 102 99 111 120 114 116 120 120 117 113 105 95
52 18 25 42 33 27 23 16 10 32 39 5 20 21 30 47 73 85 75 89 90 116 108 102 106 111 120 119 118 116 110 98
16 23 25 15 23 37 12 9 40 15 5 18 12 9 28 31 34 51 70 67 85 94 89 90 97 109 121 122 118 114 113 105
42 23 12 13 35 26 35 24 22 42 11 13 2 14 17 51 64 68 74 78 61 69 87 89 100 107 121 127 119 117 115 110
20 32 37 21 22 44 44 41 40 16 21 20 19 18 17 48 56 79 87 68 75 91 83 104 102 115 125 129 122 119 116 114
14 23 45 45 39 43 33 43 39 16 16 19 28 39 28 42 63 66 58 75 73 59 76 105 120 123 130 127 124 119 119 118
13 13 35 35 66 32 24 17 20 23 15 18 17 16 23 37 55 58 72 76 57 56 85 111 123 135 124 117 119 118 122 121
11 6 34 32 31 43 18 13 12 14 18 29 26 55 57 48 42 51 44 54 45 57 71 102 110 113 116 111 115 117 119 120
7 8 7 6 9 18 19 26 19 19 19 18 46 38 10 44 41 43 67 44 36 44 47 64 66 92 103 106 110 111 112 114
7 5 12 8 8 19 15 5 9 20 21 17 16 19 11 31 38 41 37 40 40 41 55 69 74 82 95 102 106 108 108 111
24 10 15 9 14 9 17 14 5 12 18 19 13 20 42 35 33 34 55 53 46 43 45 40 43 76 83 89 93 80 81 80
9 12 10 62 43 11 12 13 19 28 27 49 51 44 37 35 33 28 26 44 55 54 65 70 67 75 69 74 70 69 89 90
9 6 13 49 29 51 25 23 14 24 25 28 35 49 52 49 42 35 29 24 23 30 53 65 59 62 72 79 75 76 88 94
3 7 28 48 79 52 31 39 28 22 27 26 51 51 52 49 39 31 24 18 15 20 31 43 55 65 75 80 87 97 99 101
1 17 40 34 64 50 28 39 39 39 49 52 50 46 48 43 34 26 17 6 9 22 36 40 45 50 57 72 82 87 92 85
7 9 7 15 43 56 76 63 48 47 48 46 45 45 42 41 32 21 10 7 12 14 19 30 38 47 53 56 66 74 88 85
8 14 4 4 45 71 80 73 67 56 48 49 45 44 42 40 32 24 16 4 5 7 12 12 20 29 36 47 53 50 56 59
Wind_Direction_850mb
209 220 195 219 206 198 196 209 308 214 259 291 241 210 215 211 207 205 205 205 207 213 216 215 216 219 220 219 220 222 223 224
239 213 240 209 180 204 226 217 241 255 230 221 212 219 196 207 207 204 201 204 207 210 214 216 219 222 221 224 221 223 224 224
202 222 215 200 210 232 183 196 226 242 248 197 235 212 208 203 201 200 192 199 203 208 216 218 216 218 223 223 224 223 222 223
235 208 201 220 215 196 220 243 245 227 237 242 198 223 195 199 203 202 189 192 202 210 210 211 218 219 224 225 225 226 224 221
272 255 240 205 223 217 147 135 226 207 215 203 228 181 204 211 211 196 198 200 206 202 209 212 219 220 224 228 229 228 226 222
232 215 177 196 224 217 215 215 215 235 199 291 182 188 225 209 203 193 201 218 216 213 212 221 222 223 225 227 229 228 228 226
275 240 206 189 194 217 215 222 212 186 193 228 236 199 221 241 214 204 205 214 226 220 225 226 222 223 223 227 227 227 228 228
258 244 225 220 223 231 221 220 231 160 212 186 231 219 208 228 215 212 218 212 206 212 228 218 221 220 225 222 226 225 227 230
276 218 214 233 221 205 215 206 193 210 192 184 201 200 204 215 217 222 218 219 222 227 219 209 212 216 218 222 225 225 227 229
271 295 200 230 203 219 189 207 210 213 210 206 205 221 216 230 244 230 211 195 211 208 208 211 215 218 221 223 224 226 228 225
260 277 266 232 158 153 177 234 191 196 210 212 219 208 211 211 208 229 219 214 198 219 208 210 220 223 224 221 225 225 227 229
279 326 258 211 266 120 107 273 245 194 199 193 134 206 237 210 217 196 213 225 214 212 221 204 212 224 225 225 225 229 231 233
251 230 279 322 271 58 114 226 230 140 184 148 153 189 155 156 168 197 209 211 228 223 210 203 203 216 219 227 224 228 231 233
279 265 257 349 328 139 206 113 125 117 122 127 129 139 152 153 149 157 178 207 216 220 225 230 216 218 225 224 236 232 230 229
165 232 341 356 328 326 18 110 122 110 117 118 119 131 131 130 135 138 147 173 202 226 233 230 230 231 230 229 228 231 227 228
44 33 1 342 345 357 37 81 76 128 128 136 129 128 125 128 131 136 137 150 178 206 221 226 230 234 235 233 230 226 222 220
300 4 354 0 339 352 59 74 93 93 111 125 129 121 130 126 127 126 123 136 212 216 223 238 244 239 234 232 230 217 213 204
141 68 309 299 338 37 59 52 60 82 88 95 108 113 120 118 125 135 156 222 254 256 250 237 232 233 231 226 220 213 198 194
111 116 215 203 38 61 63 66 65 67 72 92 95 103 107 109 112 119 121 135 265 258 261 260 258 251 227 206 216 204 209 209